Wind_Speed
35 36 35 36 35 34 35 34 34 34 34 35 35 35 35 36 36 35 35 36 36 37 38 39 40 40 41 41 41 41 40 40 40 41 41 40 39 39 38 38 38 37 37
36 35 35 35 35 34 34 35 34 34 34 35 36 36 36 36 36 37 36 36 37 38 39 39 40 41 42 42 42 42 41 41 41 41 41 41 40 40 40 39 39 39 39
36 36 35 35 34 34 34 35 35 35 35 35 35 36 37 37 37 38 38 37 38 38 39 39 39 40 41 42 42 42 42 42 42 42 43 43 43 41 40 41 41 41 41
36 35 35 35 35 35 35 36 35 36 36 36 35 35 36 37 38 38 38 38 38 38 39 39 40 40 40 41 41 41 42 43 43 44 44 44 44 43 42 41 42 42 43
37 36 36 35 35 35 36 36 36 36 36 36 36 36 36 36 37 37 38 38 38 39 39 39 40 41 41 41 41 42 43 44 45 45 45 44 45 44 44 44 43 43 44
38 37 36 35 35 36 36 36 37 37 37 37 36 36 36 36 37 37 37 37 38 39 39 40 40 41 41 42 43 43 44 44 45 46 46 46 45 45 45 45 45 45 45
38 37 36 36 36 36 36 36 36 36 36 36 36 36 36 37 37 37 37 37 37 38 39 39 40 41 42 43 43 42 43 44 45 46 46 46 47 47 47 46 47 47 47
36 37 36 36 37 37 37 37 36 36 36 36 36 36 36 37 37 38 37 37 38 38 39 39 39 39 41 42 42 42 42 42 43 45 46 46 47 47 47 47 47 48 48
35 36 36 36 36 36 36 36 37 36 36 36 36 36 37 37 37 38 38 38 38 38 38 38 38 38 39 40 41 41 41 42 43 43 45 46 47 47 48 48 48 49 49
34 34 35 35 34 34 35 35 35 35 36 36 37 37 38 38 38 38 38 36 36 37 37 37 36 37 38 39 39 39 40 41 42 43 44 45 46 47 48 48 49 50 50
35 35 35 34 34 34 34 34 34 35 35 35 36 36 37 37 37 36 36 36 34 35 35 35 36 37 38 38 38 38 40 41 42 44 45 45 45 46 47 49 50 51 51
34 34 34 33 33 33 33 33 34 34 35 35 35 36 36 36 36 35 35 35 34 34 34 35 35 36 36 37 37 38 39 40 41 42 44 45 45 45 46 47 48 50 51
33 32 33 33 33 33 33 33 33 33 34 34 34 35 35 34 34 33 34 34 33 33 33 34 35 35 36 36 36 37 38 39 40 42 44 45 46 46 46 47 48 49 51
33 32 32 33 34 34 33 33 33 33 32 32 31 32 32 32 31 32 33 32 33 34 34 34 34 35 35 35 36 37 38 39 40 40 41 43 44 45 46 47 48 48 49
34 34 33 33 34 34 34 33 33 33 32 32 31 31 31 32 31 32 33 33 34 34 35 35 35 35 35 36 36 37 38 38 38 39 40 41 43 45 45 45 45 46 48
33 33 34 34 33 33 33 33 33 33 32 32 32 31 31 32 33 33 33 34 35 35 35 35 36 35 36 37 38 38 38 39 39 40 40 41 42 43 44 45 45 46 48
32 33 33 33 33 32 33 32 32 33 33 32 32 32 32 32 34 34 33 33 34 35 36 36 36 36 36 37 38 39 39 39 39 40 40 41 42 43 44 44 45 47 48
32 33 33 32 33 33 33 33 32 32 32 32 32 32 32 33 34 34 34 34 34 35 36 37 37 37 37 38 38 38 38 39 39 39 40 40 42 43 44 45 45 45 46
32 32 32 32 33 33 33 33 33 32 32 32 33 33 33 33 34 35 35 35 35 35 36 37 37 38 38 39 38 38 38 38 39 40 40 41 42 43 44 45 44 43 43
33 32 32 32 32 32 32 32 33 33 33 33 33 33 33 33 34 35 36 36 36 36 36 35 36 37 38 38 38 38 37 38 39 40 40 41 42 43 43 43 42 41 41
32 32 32 32 33 33 33 32 32 32 32 32 33 33 33 32 33 33 34 35 36 37 36 36 36 36 37 37 37 38 38 38 38 39 39 40 40 40 40 40 39 39 38
31 32 32 32 33 33 33 33 33 32 32 32 32 32 33 33 32 32 33 34 34 35 35 36 36 36 36 36 37 38 39 39 39 38 38 38 37 38 37 37 37 37 38
30 31 31 31 31 32 32 32 33 32 31 31 31 32 32 32 32 33 33 34 34 34 35 35 35 35 36 36 37 37 38 38 38 37 37 36 36 36 36 36 36 37 37
29 29 29 30 30 30 31 32 32 32 31 32 32 32 32 32 33 33 33 33 34 33 34 34 35 36 36 37 37 37 37 36 36 37 36 36 36 36 37 37 37 37 37
28 28 29 29 29 29 30 31 32 33 33 33 33 33 32 32 32 33 33 34 34 34 35 35 35 36 36 37 36 36 36 35 36 36 36 36 36 36 36 36 36 37 37
27 28 28 29 29 29 30 31 31 32 32 33 33 33 33 33 34 34 34 34 35 35 36 36 36 37 37 37 36 36 35 36 36 36 36 36 36 36 36 36 36 37 38
Wind_Direction
251 253 252 250 249 252 253 253 253 253 253 252 253 254 253 254 256 258 259 261 262 261 260 259 259 257 256 256 256 256 256 256 256 257 258 259 260 261 262 264 265 266 267
250 252 253 251 250 252 254 253 254 254 254 254 255 254 255 256 258 259 261 262 263 261 260 259 259 258 256 256 256 256 256 256 256 257 257 258 259 261 262 264 265 267 267
250 250 251 251 252 252 253 254 255 255 255 256 257 256 256 257 258 260 261 262 262 262 260 259 259 258 257 256 256 256 255 255 255 256 256 257 258 260 261 264 265 266 267
249 249 250 251 252 252 253 254 254 256 257 258 258 258 258 258 259 261 262 263 262 262 261 260 259 258 257 256 255 255 255 255 254 256 257 258 259 260 261 262 264 265 267
248 249 249 251 250 250 252 253 254 256 257 258 257 258 259 260 260 261 263 263 262 262 262 260 259 259 257 257 257 256 256 255 255 256 256 258 258 259 260 261 262 265 267
247 248 249 249 249 250 252 253 254 255 256 257 257 259 260 260 261 262 263 264 263 263 262 261 261 260 258 258 258 258 257 257 256 256 257 257 258 259 260 260 262 264 266
247 247 248 248 248 250 252 253 254 255 256 256 257 259 260 261 262 263 263 263 263 262 263 263 262 261 260 259 258 258 259 258 257 256 256 257 258 258 260 262 263 265 267
248 247 247 248 248 249 252 253 254 254 255 257 258 259 262 263 264 263 263 263 262 261 262 263 262 261 261 260 259 258 258 258 257 256 256 256 258 259 261 263 264 266 266
247 246 247 248 250 251 252 253 254 255 257 258 259 260 262 263 264 264 263 263 261 262 262 263 263 263 262 261 260 259 257 257 257 257 258 258 258 259 260 263 265 267 269
246 247 248 250 252 254 253 254 254 254 256 258 259 260 262 263 264 265 263 262 261 261 262 262 263 264 263 262 260 259 258 258 258 258 258 260 260 261 261 263 265 267 269
247 248 249 251 252 253 253 254 254 255 257 258 259 261 261 263 263 262 262 260 260 260 261 262 263 264 263 262 261 261 260 260 259 259 260 262 263 263 264 265 268 270 270
247 247 247 248 249 251 252 254 254 256 257 258 259 261 261 262 260 260 260 258 260 263 262 263 264 265 264 263 262 261 261 262 262 263 263 263 264 264 267 268 270 271 272
246 246 245 245 247 250 251 253 255 257 258 258 259 261 260 259 259 259 258 259 260 262 264 263 263 264 264 263 263 263 262 262 264 265 265 266 267 267 268 269 271 273 274
245 246 247 247 248 249 250 251 253 255 257 258 258 260 258 256 257 259 259 258 259 262 264 264 263 264 264 265 264 264 264 265 268 268 269 268 269 270 270 271 272 273 275
244 245 246 247 248 248 250 251 253 254 255 257 258 257 256 256 257 259 259 259 261 262 263 264 264 265 265 265 265 265 266 269 270 271 271 271 271 271 271 272 274 275 277
245 245 246 246 246 248 249 251 252 253 254 256 257 257 257 257 258 260 260 261 262 263 264 265 265 265 267 267 267 267 269 270 271 272 272 272 272 272 273 273 275 277 278
247 246 247 248 248 248 248 250 251 253 254 255 256 258 257 257 258 259 259 261 262 264 265 266 267 266 267 268 268 269 269 270 272 273 273 274 274 274 274 274 276 278 279
248 248 248 248 247 247 248 249 250 252 254 255 255 256 256 257 257 258 259 261 263 265 265 266 267 267 268 269 269 269 270 272 273 274 275 275 275 275 274 275 277 279 280
249 248 248 248 248 248 249 250 251 252 254 255 255 255 257 258 258 259 260 262 263 265 266 266 267 267 268 269 269 270 271 272 273 274 275 276 277 276 276 276 278 280 281
250 250 250 250 249 249 250 251 251 253 256 257 258 258 259 259 260 260 261 262 263 266 268 268 268 268 269 269 270 271 272 273 273 274 276 278 278 278 277 278 279 280 281
249 250 251 251 251 251 251 251 253 255 256 258 259 260 260 261 262 262 263 264 265 266 267 269 269 269 270 271 271 272 273 274 275 277 278 279 279 279 279 278 280 281 282
249 250 252 253 253 253 252 253 256 257 257 258 259 260 260 262 263 264 265 266 267 266 267 269 269 270 271 272 273 273 274 275 277 279 279 279 280 280 279 280 281 283 284
251 252 252 253 253 253 253 254 255 256 257 258 260 262 263 264 265 266 266 267 267 268 269 269 270 270 271 272 273 274 274 275 277 279 279 280 280 279 279 281 282 284 284
251 252 252 252 253 254 254 255 255 256 256 259 260 262 263 265 266 267 267 269 268 269 269 269 269 270 272 273 274 274 274 275 278 279 280 280 279 279 280 281 282 284 285
252 252 253 253 254 254 255 256 257 257 258 260 261 262 263 264 266 267 267 267 268 269 269 270 271 273 273 274 274 274 275 276 279 279 279 279 279 280 281 282 282 284 286
252 253 254 255 255 256 257 258 259 259 260 261 262 263 264 265 266 267 267 267 267 269 270 271 273 274 274 275 274 275 276 278 279 279 279 279 279 281 281 282 283 285 287
Height
5703 5704 5705 5707 5709 5712 5714 5716 5718 5721 5723 5725 5728 5730 5732 5734 5735 5737 5738 5739 5740 5741 5742 5744 5745 5746 5748 5750 5752 5755 5757 5760 5762 5765 5767 5769 5771 5773 5774 5776 5777 5778 5779
5694 5696 5698 5699 5702 5704 5705 5708 5710 5712 5715 5717 5719 5721 5723 5725 5726 5727 5728 5729 5730 5731 5732 5733 5734 5736 5738 5740 5742 5745 5747 5750 5752 5755 5757 5759 5762 5763 5765 5767 5768 5769 5770
5685 5688 5690 5692 5694 5696 5698 5700 5702 5704 5706 5708 5710 5712 5714 5715 5717 5718 5719 5719 5720 5720 5721 5723 5724 5726 5727 5729 5732 5734 5737 5739 5741 5744 5747 5749 5752 5754 5756 5757 5758 5759 5760
5677 5679 5682 5684 5686 5688 5690 5692 5694 5695 5697 5699 5701 5703 5705 5706 5707 5708 5709 5710 5710 5711 5711 5713 5714 5716 5717 5719 5721 5723 5725 5728 5730 5733 5735 5739 5741 5744 5746 5748 5748 5749 5750
5668 5671 5673 5676 5678 5679 5681 5683 5685 5687 5689 5690 5692 5694 5695 5696 5697 5699 5699 5700 5700 5701 5702 5703 5704 5706 5708 5709 5711 5712 5714 5716 5719 5721 5724 5727 5729 5732 5734 5737 5738 5738 5739
5659 5661 5664 5666 5668 5670 5672 5674 5676 5678 5680 5681 5683 5684 5686 5687 5688 5689 5690 5690 5691 5691 5692 5693 5694 5696 5697 5699 5700 5702 5703 5705 5707 5710 5712 5715 5717 5720 5722 5724 5726 5727 5728
5649 5652 5655 5657 5659 5662 5664 5666 5667 5669 5671 5672 5674 5675 5677 5678 5679 5680 5680 5681 5681 5682 5682 5683 5684 5685 5687 5688 5689 5691 5693 5694 5696 5698 5700 5703 5705 5707 5710 5711 5713 5715 5716
5640 5643 5646 5648 5650 5653 5655 5657 5658 5660 5661 5663 5665 5666 5667 5668 5669 5670 5671 5671 5671 5672 5673 5673 5674 5675 5676 5677 5678 5680 5682 5683 5685 5687 5689 5691 5693 5695 5697 5699 5700 5702 5704
5631 5633 5636 5639 5641 5643 5645 5647 5649 5650 5652 5654 5655 5656 5658 5659 5659 5660 5661 5661 5662 5663 5663 5664 5665 5665 5666 5667 5668 5669 5671 5673 5675 5676 5678 5680 5682 5683 5685 5686 5687 5689 5690
5621 5624 5627 5629 5632 5634 5636 5637 5639 5641 5643 5644 5646 5647 5648 5649 5649 5650 5651 5652 5652 5653 5654 5654 5655 5656 5657 5657 5658 5659 5661 5662 5664 5666 5667 5669 5670 5672 5673 5674 5675 5676 5676
5612 5615 5618 5620 5622 5625 5626 5628 5630 5631 5633 5635 5636 5637 5638 5639 5640 5640 5641 5642 5643 5644 5645 5646 5646 5647 5648 5648 5649 5650 5651 5653 5654 5655 5657 5658 5659 5661 5662 5662 5663 5663 5663
5603 5606 5609 5611 5614 5615 5617 5619 5620 5622 5624 5625 5626 5627 5628 5629 5630 5631 5632 5633 5634 5635 5636 5636 5637 5638 5639 5639 5640 5641 5642 5644 5645 5645 5646 5647 5648 5649 5650 5650 5650 5650 5650
5594 5597 5600 5602 5604 5607 5608 5610 5612 5613 5614 5615 5616 5617 5618 5619 5621 5622 5623 5624 5625 5626 5627 5627 5628 5629 5630 5630 5631 5632 5633 5634 5635 5635 5636 5636 5636 5637 5637 5638 5638 5637 5637
5586 5588 5591 5593 5596 5598 5599 5601 5603 5604 5605 5606 5607 5609 5609 5610 5612 5613 5614 5615 5616 5617 5618 5619 5619 5620 5621 5621 5622 5623 5623 5624 5624 5624 5624 5625 5625 5625 5625 5626 5625 5625 5624
5577 5579 5582 5585 5587 5589 5591 5592 5594 5596 5597 5598 5599 5600 5601 5602 5603 5604 5605 5606 5607 5608 5609 5609 5610 5611 5612 5613 5613 5614 5614 5614 5614 5614 5614 5614 5613 5613 5613 5613 5613 5612 5611
5568 5570 5573 5576 5578 5581 5582 5584 5585 5587 5588 5589 5591 5592 5592 5593 5594 5595 5596 5597 5598 5599 5600 5600 5601 5602 5602 5603 5604 5604 5604 5604 5604 5604 5604 5603 5603 5602 5602 5601 5600 5599 5598
5559 5562 5564 5567 5569 5572 5574 5575 5577 5578 5580 5581 5582 5583 5584 5585 5586 5587 5588 5589 5590 5590 5590 5591 5592 5592 5593 5593 5594 5594 5594 5594 5594 5594 5593 5593 5592 5591 5590 5589 5588 5587 5585
5551 5553 5556 5558 5561 5563 5565 5566 5568 5570 5571 5572 5573 5574 5575 5576 5577 5579 5580 5580 5581 5581 5582 5582 5582 5583 5583 5583 5584 5584 5584 5584 5584 5583 5583 5582 5581 5580 5579 5578 5577 5575 5573
5542 5545 5547 5549 5552 5554 5556 5558 5559 5561 5562 5564 5565 5566 5567 5568 5569 5570 5571 5571 5572 5573 5573 5573 5573 5573 5573 5573 5574 5574 5574 5574 5574 5573 5572 5571 5570 5569 5567 5566 5565 5564 5561
5534 5536 5539 5541 5543 5545 5547 5549 5551 5552 5553 5555 5556 5557 5558 5559 5560 5561 5562 5562 5563 5563 5564 5564 5563 5563 5564 5563 5563 5563 5564 5564 5563 5563 5561 5560 5559 5557 5555 5554 5553 5552 5551
5525 5527 5530 5532 5534 5536 5538 5540 5542 5543 5544 5546 5547 5548 5550 5550 5551 5552 5552 5553 5553 5554 5554 5554 5554 5554 5554 5553 5553 5553 5553 5553 5553 5552 5550 5549 5547 5546 5545 5543 5543 5541 5539
5516 5519 5521 5523 5525 5527 5529 5531 5533 5534 5535 5537 5538 5539 5540 5541 5542 5542 5542 5543 5543 5543 5543 5543 5544 5543 5543 5543 5543 5543 5543 5543 5542 5541 5540 5538 5537 5536 5534 5533 5532 5530 5529
5507 5510 5512 5514 5516 5518 5520 5522 5524 5525 5527 5528 5529 5530 5531 5532 5532 5533 5533 5533 5533 5533 5534 5534 5534 5534 5534 5533 5533 5533 5532 5532 5531 5530 5529 5528 5527 5526 5525 5523 5521 5520 5518
5499 5501 5503 5505 5507 5509 5511 5513 5515 5516 5518 5519 5520 5521 5522 5523 5523 5523 5524 5524 5524 5524 5524 5524 5524 5525 5524 5524 5523 5523 5522 5522 5521 5520 5519 5518 5517 5516 5514 5513 5511 5509 5507
5491 5493 5495 5497 5499 5501 5502 5504 5506 5507 5509 5510 5511 5512 5513 5514 5514 5514 5514 5514 5514 5514 5514 5514 5514 5514 5514 5513 5513 5512 5512 5512 5511 5510 5509 5508 5507 5505 5504 5502 5500 5498 5496
5483 5485 5487 5489 5491 5492 5494 5495 5497 5498 5499 5501 5502 5503 5503 5504 5504 5505 5505 5504 5505 5505 5504 5504 5504 5504 5504 5503 5503 5502 5502 5501 5500 5500 5499 5498 5496 5495 5494 5492 5490 5488 5486